STARLINK-1494, 45760

Orbit data source: Space-Track

STARLINK-1494, 45760 is a payload satellite owned by SpaceX/Seattle (US) in LEO that was launched on Sat, 13 Jun 2020 UTC via an FALCON 9 launch vehicle from the Air Force Eastern Test Range (AFETR). Payloads include a variety of satellites, spacecraft, and rockets equipped with specific instruments for various scientific and technological missions. These include communications satellites like Starlink; space stations such as the ISS; scientific satellites like the Hubble; Earth observation satellites from companies like Planet Labs, Umbra, and HawkEye 360; GPS; miniature CubeSats for education and research; and military/defense satellites.

Loading next visibility...
STARLINK-1494 details
Identifier
45760, 2020-038AG
Orbit
LEO
Last TLE update1 day ago
Origin
Flag of USSpaceX/Seattle (US)
ManufacturerSpaceX/Seattle
MissionOperational Commercial Communications
Bus & MotorSTARLINK, Unknown motor
Mass260 kg wet, ~248 kg dry
Launch date (UTC)
2020-06-13 (5 years ago)
Launch vehicle
FALCON 9
Launch site
Air Force Eastern Test Range (AFETR)
Object type
Payload
Rocket body
Debris
Shape & HBRBox + 1 Pan, 8.86 m
Radar Cross Section13.562 m², Large (>1 m²)

Expand to show TLE details & history

TLE from 1 day ago
0 STARLINK-1494
1 45760U 20038AG  24360.37509478  .00001428  00000-0  11476-3 0  9990
2 45760  53.0559  28.7767 0001171  85.1361 274.9762 15.06381028250268
Epoch: 2024-12-25T09:00Z
Definitive object data (Epoch: 2024-12-25T09:00:08.189Z)
Latitude0.00003°
Longitude159.37285°
Altitude548.079 km
Speed7.589 km/s
True Right ascension01h 55m 06s
True Declination0° 00' 00"
Sunlit
Object was in daylight at TLE epoch
Visualization TLE readout
Latitude-21.15654°
Longitude-8.74007°
Altitude553.563 km
Speed7.585 km/s
Apparent Right ascension17h 49m 25s
Apparent Declination-48° 31' 41"
Sunlit
Object is in daylight
Visualization observer readout
Local Sidereal Time10:44:55
Azimuth125.671° SE
Elevation-38.452°
Doppler factor1
Orbital elements
Apogee altitude548.351 km
Perigee altitude546.729 km
Semi-major axis6,925.677 km
Eccentricity0.0001171
Inclination53.0559°
RAAN28.7767°
Arg. of periapsis85.1361°
True anomaly274.96283°
Mean anomaly274.9762°
Eccentric anomaly274.96952°
Mean motion3.76574 °/min
BSTAR0.00011476
Orbital period95.6 mins
Loading maneuver chart data...

STARLINK-1494 Visibility forecast

Observer location: undefined°, undefined

Span
Click to sort rows by Start time (UTC) header in descending order
Start Az.
Max El. time (UTC)
Max El. Az.
Max El.
End time (UTC)
End Az.
5 mins2024-12-26 12:37:34.759Z278.744° WNW2024-12-26 12:40:34.759Z219.46° SW22.881°2024-12-26 12:42:34.759Z183.237° SSW
6 mins2024-12-27 04:10:34.759Z209.707° SW2024-12-27 04:12:34.759Z169.499° S39.25°2024-12-27 04:16:34.759Z58.11° ENE
5 mins2024-12-27 05:50:34.759Z288.479° WNW2024-12-27 05:52:34.759Z327.997° NNW23.677°2024-12-27 05:55:34.759Z25.891° NE
7 mins2024-12-27 10:51:34.759Z319.269° NNW2024-12-27 10:54:34.759Z37.417° NE40.894°2024-12-27 10:58:34.759Z117.337° SE
|